Weather History for KLWD - January, 2014

Change the Weather History Date:

Sunday, January 12, 2014

  Actual Average Record
Temperature  
Mean Temperature 39 °F 24 °F  
Max Temperature 49 °F 33 °F - ()
Min Temperature 28 °F 15 °F - ()
Degree Days  
Heating Degree Days 26 41  
Month to date heating degree days 606 492  
Since 1 July heating degree days 3152 2921  
Cooling Degree Days 0 0  
Month to date cooling degree days 0 0  
Year to date cooling degree days 0 0  
Moisture  
Dew Point 28 °F    
Average Humidity 68    
Maximum Humidity 85    
Minimum Humidity 50    
Precipitation  
Precipitation 0.00 in 0.02 in - ()
Month to date precipitation 0.23 0.24  
Sea Level Pressure  
Sea Level Pressure 29.63 in    
Wind  
Wind Speed 11 mph (SW)    
Max Wind Speed 18 mph    
Max Gust Speed 24 mph    
Visibility 10 miles    
Events      
T = Trace of Precipitation, MM = Missing Value Source: NWS Daily Summary

Daily Weather History Graph

Daily Weather History Graph

Search for Another Location

Airport or City:

Trip Planner

Search our weather history database for the weather conditions in past years. The results will help you decide how hot, cold, wet, or windy it might be!

Date:

Astronomy

Jan. 12, 2014 Rise Set
Actual Time 7:38 AM CST 5:09 PM CST
Civil Twilight 7:08 AM CST 5:40 PM CST
Nautical Twilight 6:34 AM CST 6:14 PM CST
Astronomical Twilight 6:01 AM CST 6:46 PM CST
Moon 2:38 PM CST (1/12) 4:37 AM CST (1/12)
Length of Visible Light 10h 32m
Length of Day
9h 31m
Waxing Gibbous, 90% of the Moon is Illuminated
Jan 12
Waxing Gibbous
Jan 15
Full
Jan 23
Last Quarter
Jan 30
New
Feb 6
First Quarter

Hourly Weather History & Observations

Time (CST) Temp. Windchill Dew Point Humidity Pressure Visibility Wind Dir Wind Speed Gust Speed Precip Events Conditions
12:53 AM 28.0 °F 18.6 °F 25.0 °F 88% 29.82 in 10.0 mi SSW 10.4 mph - N/A   Clear
1:53 AM 30.0 °F 21.1 °F 26.1 °F 85% 29.79 in 10.0 mi South 10.4 mph - N/A   Clear
2:53 AM 30.0 °F 21.1 °F 25.0 °F 82% 29.78 in 10.0 mi South 10.4 mph - N/A   Clear
3:53 AM 30.0 °F 20.0 °F 25.0 °F 82% 29.74 in 10.0 mi South 12.7 mph - N/A   Clear
4:53 AM 30.9 °F 22.2 °F 26.1 °F 82% 29.72 in 10.0 mi South 10.4 mph - N/A   Clear
5:53 AM 35.1 °F 25.2 °F 27.0 °F 72% 29.69 in 10.0 mi South 16.1 mph - N/A   Clear
6:53 AM 36.0 °F 26.7 °F 27.0 °F 70% 29.67 in 10.0 mi South 15.0 mph - N/A   Clear
7:53 AM 36.0 °F 25.6 °F 27.0 °F 70% 29.64 in 10.0 mi South 18.4 mph - N/A   Clear
8:53 AM 37.0 °F 28.1 °F 27.0 °F 67% 29.62 in 10.0 mi South 15.0 mph - N/A   Clear
9:53 AM 39.9 °F 31.8 °F 28.0 °F 63% 29.63 in 10.0 mi South 15.0 mph - N/A   Clear
10:53 AM 43.0 °F 35.7 °F 28.0 °F 56% 29.60 in 10.0 mi South 15.0 mph - N/A   Clear
11:53 AM 45.0 °F 37.9 °F 28.9 °F 53% 29.55 in 10.0 mi SSW 16.1 mph - N/A   Clear
12:53 PM 48.9 °F - 30.9 °F 50% 29.51 in 10.0 mi South 13.8 mph - N/A   Clear
1:53 PM 48.0 °F - 30.0 °F 50% 29.51 in 10.0 mi SW 11.5 mph - N/A   Clear
2:53 PM 48.0 °F - 32.0 °F 54% 29.51 in 10.0 mi SW 6.9 mph - N/A   Clear
3:53 PM 46.9 °F - 32.0 °F 56% 29.53 in 10.0 mi WSW 4.6 mph - N/A   Clear
4:53 PM 44.1 °F 42.5 °F 30.9 °F 60% 29.55 in 10.0 mi WNW 3.5 mph - N/A   Clear
5:53 PM 41.0 °F 36.4 °F 30.0 °F 65% 29.58 in 10.0 mi West 6.9 mph - N/A   Clear
6:53 PM 39.9 °F 35.8 °F 28.9 °F 65% 29.59 in 10.0 mi West 5.8 mph - N/A   Clear
7:53 PM 37.9 °F 32.1 °F 28.9 °F 70% 29.59 in 10.0 mi WNW 8.1 mph - N/A   Clear
8:53 PM 39.0 °F 36.8 °F 28.9 °F 67% 29.60 in 10.0 mi South 3.5 mph - N/A   Clear
9:53 PM 35.1 °F 31.0 °F 28.9 °F 78% 29.62 in 10.0 mi WSW 4.6 mph - N/A   Clear
10:53 PM 35.1 °F 27.4 °F 30.0 °F 82% 29.62 in 10.0 mi NW 10.4 mph - N/A   Overcast
11:53 PM 36.0 °F 29.6 °F 30.9 °F 82% 29.63 in 10.0 mi NW 8.1 mph - N/A   Overcast